Temp
11 11 10 10 10 10 11 11 12 9 9 9 10 9 10 10 10 8 8 7 5 5 5 6 6 5 5 3 3 4 4 5 5 4 4 3 3 3
11 11 11 10 10 10 10 10 10 11 11 11 11 10 9 10 9 8 8 7 6 6 5 5 5 5 4 4 3 5 4 4 4 4 4 3 3 2
11 11 11 11 10 10 9 10 10 10 10 11 11 10 10 10 10 9 8 7 7 6 6 5 4 4 4 3 3 4 3 3 3 3 3 3 2 2
11 10 10 10 10 10 9 9 10 10 10 10 11 11 9 10 9 9 8 8 7 6 6 6 5 4 4 3 3 2 2 2 2 2 2 2 2 1
10 10 10 10 10 9 10 9 9 9 9 10 10 10 10 10 9 8 8 7 7 7 6 6 5 5 4 3 2 2 2 2 2 1 1 1 1 1
10 10 10 10 10 9 9 10 9 9 9 9 9 9 9 10 9 9 9 8 7 6 6 6 5 5 4 4 3 2 1 2 2 1 1 1 0 0
9 9 9 9 10 9 9 10 9 9 9 9 8 8 8 9 9 10 9 9 7 6 6 6 5 5 4 3 3 2 1 1 1 1 0 0 0 -0
9 8 8 8 9 9 8 9 10 9 9 9 9 9 9 9 10 10 10 8 6 7 6 5 5 5 4 3 3 2 1 1 1 0 -0 -0 -0 -1
8 8 9 9 9 8 8 9 8 9 10 10 9 10 9 10 10 9 9 9 9 9 7 5 4 4 4 3 3 2 1 1 0 -0 -1 -1 -2 -1
7 7 8 8 9 10 9 8 7 7 9 9 9 10 10 9 10 9 10 8 5 4 6 4 4 3 3 3 1 1 0 0 -1 -1 -4 -3 -2 -2
5 6 6 6 7 8 8 8 8 8 8 9 8 8 8 8 9 8 6 5 4 6 5 3 3 2 3 2 1 0 -0 -1 -2 -4 -4 -5 -5 -3
5 6 6 6 5 6 6 7 7 7 7 8 8 7 6 8 8 7 6 6 5 4 5 3 3 2 1 1 1 -1 -1 -3 -3 -6 -4 -5 -6 -5
3 5 6 6 5 5 5 5 6 6 6 6 6 8 7 6 6 6 6 6 6 6 7 5 4 3 1 1 1 -1 -2 -2 -4 -4 -5 -6 -6 -5
0 2 3 5 5 4 4 5 4 5 4 4 5 5 5 5 5 6 7 6 6 6 6 4 4 5 3 -0 -0 -1 -2 -3 -4 -5 -6 -6 -6 -7
-3 -1 0 2 2 2 3 2 4 3 3 3 4 4 4 5 5 4 6 5 6 6 4 2 2 2 2 2 1 0 -1 -4 -4 -5 -6 -6 -6 -6
-4 -3 -2 -1 1 1 0 1 1 2 2 2 3 3 3 3 4 4 4 4 2 1 1 0 0 0 -0 0 -0 -1 -2 -3 -5 -6 -6 -7 -7 -7
-6 -6 -5 -3 -2 -1 -0 -0 0 0 1 2 2 2 2 3 3 3 2 2 1 1 0 -0 -2 -2 -2 -2 -2 -3 -3 -4 -4 -5 -7 -7 -7 -8
-6 -6 -5 -5 -5 -4 -3 -2 -2 -1 -0 1 0 1 2 3 2 1 1 0 0 -0 -0 -0 -2 -3 -4 -5 -4 -4 -5 -5 -6 -6 -7 -7 -8 -8
-6 -6 -6 -6 -5 -5 -4 -4 -3 -2 -2 -1 -1 0 -0 0 0 0 -0 -1 -2 -2 -2 -1 -3 -4 -5 -6 -7 -6 -5 -6 -7 -8 -9 -9 -9 -8
-7 -6 -6 -6 -6 -5 -5 -5 -4 -4 -3 -3 -2 -2 -1 -1 -1 -1 -1 -2 -3 -3 -4 -4 -4 -4 -5 -6 -6 -7 -7 -6 -7 -8 -9 -10 -10 -9
-7 -7 -6 -6 -6 -6 -6 -5 -5 -5 -4 -4 -3 -3 -2 -2 -2 -2 -2 -3 -3 -4 -5 -5 -5 -5 -5 -5 -6 -8 -8 -8 -8 -8 -9 -10 -10 -9
-7 -7 -6 -6 -6 -6 -6 -6 -6 -5 -5 -5 -4 -4 -3 -3 -3 -3 -4 -4 -5 -5 -6 -6 -6 -6 -6 -6 -7 -7 -9 -10 -10 -10 -11 -10 -9 -9
-7 -7 -7 -7 -6 -6 -6 -6 -6 -6 -6 -5 -5 -5 -5 -5 -5 -5 -5 -6 -6 -7 -7 -7 -8 -8 -8 -7 -7 -8 -9 -10 -10 -11 -11 -11 -10 -10
Height
1531 1535 1539 1542 1548 1550 1551 1555 1557 1558 1558 1561 1563 1566 1569 1572 1575 1577 1578 1580 1582 1583 1586 1588 1587 1586 1588 1588 1589 1589 1590 1591 1591 1591 1591 1590 1590 1590
1523 1526 1529 1532 1537 1542 1545 1547 1550 1552 1551 1552 1554 1557 1562 1565 1568 1570 1571 1572 1574 1576 1578 1580 1582 1582 1582 1582 1583 1584 1584 1584 1585 1585 1585 1586 1586 1585
1512 1515 1519 1522 1526 1531 1536 1539 1541 1543 1544 1545 1548 1551 1554 1557 1559 1561 1564 1566 1567 1569 1571 1573 1574 1575 1576 1577 1576 1578 1579 1579 1579 1579 1579 1579 1580 1580
1502 1504 1508 1512 1515 1520 1524 1528 1532 1535 1536 1537 1540 1542 1544 1548 1552 1554 1556 1557 1559 1560 1562 1565 1566 1568 1569 1569 1570 1572 1572 1573 1573 1573 1574 1574 1574 1574
1490 1492 1495 1500 1502 1508 1511 1516 1520 1524 1527 1528 1531 1534 1537 1540 1542 1545 1545 1548 1550 1552 1554 1555 1557 1559 1560 1561 1562 1563 1564 1565 1566 1567 1568 1568 1568 1568
1479 1479 1484 1487 1489 1491 1497 1502 1508 1512 1515 1517 1518 1522 1526 1529 1531 1533 1533 1535 1537 1541 1544 1545 1547 1549 1550 1551 1553 1554 1555 1557 1559 1560 1560 1561 1562 1562
1467 1469 1470 1476 1479 1481 1479 1483 1492 1496 1500 1504 1504 1508 1510 1514 1515 1521 1522 1525 1527 1529 1532 1532 1535 1537 1538 1541 1542 1545 1547 1549 1551 1552 1553 1553 1554 1555
1451 1455 1460 1458 1464 1466 1468 1471 1472 1478 1482 1486 1490 1491 1495 1500 1506 1507 1512 1511 1513 1517 1518 1520 1522 1522 1526 1527 1530 1535 1537 1538 1541 1543 1545 1545 1546 1547
1441 1443 1446 1447 1453 1454 1454 1457 1457 1462 1466 1469 1473 1473 1481 1485 1492 1493 1494 1496 1496 1498 1503 1506 1510 1511 1512 1515 1519 1524 1527 1529 1532 1533 1535 1537 1538 1539
1431 1433 1434 1436 1438 1441 1444 1443 1445 1445 1448 1453 1456 1462 1466 1472 1475 1479 1481 1482 1480 1488 1490 1491 1495 1498 1501 1504 1509 1513 1516 1519 1522 1524 1526 1529 1530 1532
1419 1420 1421 1424 1426 1428 1430 1429 1430 1431 1437 1441 1443 1447 1455 1458 1460 1461 1460 1464 1470 1469 1480 1482 1480 1487 1488 1491 1496 1500 1504 1509 1511 1514 1515 1520 1521 1524
1407 1408 1409 1413 1416 1416 1417 1417 1417 1421 1423 1426 1430 1434 1437 1439 1443 1444 1451 1453 1457 1455 1458 1468 1469 1473 1476 1477 1483 1487 1490 1493 1497 1500 1505 1509 1512 1515
1395 1394 1397 1401 1403 1403 1405 1406 1404 1410 1411 1413 1414 1415 1424 1425 1428 1430 1432 1436 1438 1439 1441 1449 1453 1457 1461 1462 1467 1473 1477 1480 1486 1491 1496 1500 1503 1505
1385 1384 1384 1383 1387 1389 1392 1392 1395 1396 1399 1401 1401 1403 1407 1409 1412 1417 1418 1421 1424 1429 1433 1436 1437 1440 1445 1449 1452 1458 1462 1470 1474 1481 1485 1491 1497 1497
1377 1374 1372 1370 1371 1372 1376 1381 1381 1382 1385 1386 1385 1387 1390 1396 1398 1403 1405 1408 1411 1415 1419 1424 1426 1431 1431 1434 1437 1442 1450 1454 1462 1470 1476 1481 1486 1488
1370 1367 1363 1360 1358 1360 1363 1365 1368 1368 1367 1372 1372 1376 1380 1380 1385 1389 1391 1393 1396 1399 1404 1410 1414 1421 1424 1426 1429 1432 1438 1443 1451 1459 1466 1473 1478 1481
1363 1358 1352 1350 1346 1346 1350 1353 1354 1357 1354 1357 1361 1362 1363 1368 1372 1375 1378 1379 1384 1385 1391 1396 1404 1410 1412 1419 1421 1425 1429 1435 1442 1449 1456 1463 1470 1473
1356 1351 1343 1342 1340 1339 1341 1342 1343 1345 1344 1341 1347 1349 1350 1351 1357 1361 1365 1367 1369 1372 1377 1381 1388 1394 1404 1408 1411 1416 1425 1429 1436 1442 1449 1455 1462 1467
1344 1340 1338 1338 1335 1335 1333 1332 1332 1333 1334 1332 1334 1335 1339 1342 1344 1346 1351 1356 1358 1362 1363 1367 1375 1381 1387 1392 1400 1409 1417 1423 1428 1438 1444 1449 1456 1462
1335 1332 1330 1327 1325 1322 1320 1319 1321 1322 1323 1324 1323 1326 1327 1330 1332 1334 1337 1342 1347 1350 1354 1358 1365 1368 1375 1380 1392 1404 1411 1417 1423 1429 1435 1444 1451 1456
1329 1326 1324 1321 1317 1313 1312 1312 1312 1312 1312 1313 1314 1316 1319 1316 1319 1325 1329 1332 1338 1340 1344 1351 1358 1366 1372 1382 1390 1398 1405 1412 1417 1421 1429 1436 1442 1449
1322 1319 1317 1314 1310 1307 1307 1305 1302 1303 1303 1303 1305 1306 1308 1309 1309 1317 1319 1322 1327 1333 1339 1345 1354 1363 1368 1374 1381 1390 1398 1406 1413 1418 1424 1430 1433 1438
1313 1310 1307 1304 1302 1301 1301 1298 1294 1294 1295 1294 1295 1298 1297 1302 1304 1309 1313 1317 1319 1329 1330 1340 1350 1360 1365 1371 1381 1387 1394 1400 1407 1415 1421 1427 1429 1432
Wind_Speed
47 47 45 42 42 40 36 35 34 37 44 44 43 42 40 36 35 34 32 28 27 27 25 28 26 27 23 23 20 19 16 14 13 13 12 12 12 13
47 49 49 47 45 45 43 39 39 39 38 45 49 49 44 41 40 39 36 32 27 27 26 27 31 31 28 27 28 21 20 20 17 16 15 14 13 13
53 51 50 49 48 48 46 44 43 43 44 36 43 50 44 47 44 42 39 35 33 32 31 30 29 30 34 32 32 23 24 23 20 19 17 17 14 15
53 56 54 53 49 51 51 50 48 45 46 45 40 39 50 45 44 45 43 42 40 37 35 34 34 32 31 32 32 28 26 24 24 22 20 18 17 16
56 55 56 53 54 52 55 54 54 51 48 48 47 42 40 44 47 46 46 46 45 42 40 38 37 36 35 34 31 32 31 28 27 25 22 21 21 20
54 56 56 54 56 56 58 59 57 59 55 53 53 52 49 46 45 45 47 48 49 47 45 43 42 40 40 38 37 35 32 31 28 27 26 24 23 21
50 55 57 52 56 55 59 61 61 62 64 60 59 57 56 53 53 50 50 49 50 50 50 49 47 46 45 42 40 38 34 32 30 29 27 26 25 24
53 58 61 54 54 57 58 64 59 65 67 68 67 64 63 61 56 55 53 55 55 54 53 55 52 51 50 48 45 40 36 34 34 32 29 28 28 25
45 50 49 64 57 56 55 59 68 65 64 66 70 72 67 65 62 60 60 61 62 59 55 56 55 55 54 50 45 41 37 35 36 33 29 29 29 25
49 53 54 47 46 56 60 62 61 68 61 65 66 66 69 69 68 66 66 65 60 54 48 51 58 58 55 52 47 42 38 36 36 34 32 30 30 25
40 43 38 49 56 54 57 63 59 62 56 57 70 65 66 66 66 66 61 58 53 52 56 52 54 52 54 54 50 46 42 39 38 37 35 31 31 27
38 41 40 47 44 48 54 51 53 59 60 62 60 55 63 66 72 52 48 51 56 52 56 55 54 50 47 53 52 50 47 46 43 44 39 33 31 29
38 42 43 46 46 46 47 49 52 50 53 56 53 55 61 61 64 54 52 54 57 57 55 55 57 54 49 31 49 52 52 48 45 42 37 32 32 31
34 37 40 41 44 45 47 51 50 49 50 52 49 50 53 54 57 60 59 59 58 57 53 55 55 58 57 50 37 45 52 50 48 43 40 35 29 29
30 35 37 40 42 44 47 48 50 44 43 51 50 53 52 50 49 62 64 62 59 59 57 54 49 52 52 54 52 45 43 53 50 44 41 36 35 36
27 31 33 35 40 43 44 48 48 45 45 50 51 53 53 50 52 57 58 59 59 57 54 51 51 45 43 45 46 45 42 41 47 45 41 36 34 30
32 33 34 34 35 38 43 47 47 48 42 44 48 50 50 52 55 58 57 55 56 57 55 51 44 40 43 41 40 40 41 39 34 44 39 37 32 26
29 33 34 35 34 34 35 38 43 44 45 39 44 47 51 50 53 54 53 55 54 55 56 57 53 46 41 34 32 37 35 36 34 32 36 30 25 26
30 33 35 34 32 33 33 33 38 40 39 40 43 45 51 54 52 52 51 53 50 52 55 57 56 52 48 39 34 31 36 35 33 30 27 25 24 23
27 30 31 31 30 32 31 30 33 35 37 39 41 47 50 53 52 51 52 52 53 54 52 51 53 51 51 48 37 35 33 35 35 30 27 24 21 21
28 29 29 28 27 26 29 30 31 32 34 37 40 47 53 50 49 52 51 49 53 53 52 50 50 47 45 37 37 38 35 31 26 26 25 22 22 21
29 29 28 27 27 27 28 29 29 30 32 34 40 42 45 47 47 50 49 49 52 52 47 44 47 46 42 40 38 39 36 30 25 23 19 17 19 17
28 29 28 27 26 27 26 26 25 26 31 33 36 41 40 43 43 44 44 45 46 45 43 46 47 43 39 35 36 36 34 31 27 24 20 17 16 16
Wind_Direction
242 242 242 240 238 239 237 237 233 213 212 214 213 217 220 223 228 234 243 247 238 225 219 212 226 238 236 240 244 247 253 256 254 256 256 255 253 256
244 245 244 240 237 237 239 239 239 238 235 235 228 225 221 223 229 237 245 255 258 249 239 232 227 236 243 243 251 256 252 260 261 257 260 256 255 258
247 246 247 246 240 238 237 239 240 238 239 248 236 230 228 227 228 235 241 242 246 250 250 249 248 242 240 244 249 252 252 253 256 259 261 263 258 254
253 250 247 246 247 240 239 237 239 238 239 241 242 237 231 231 234 237 242 241 241 244 248 251 251 252 253 253 253 250 251 249 251 251 255 255 257 254
258 254 252 247 247 246 240 237 237 239 238 239 241 239 232 235 236 239 241 240 241 243 246 248 249 250 252 253 255 251 249 249 249 250 248 251 253 255
260 253 258 252 251 252 245 240 237 239 239 237 238 239 240 241 239 239 238 240 239 239 242 244 248 249 250 252 252 259 249 246 248 247 246 246 249 254
256 257 253 260 262 266 257 241 239 237 240 238 237 237 238 239 239 243 241 242 240 238 238 240 242 242 243 245 246 251 252 244 245 244 244 248 249 250
252 251 255 265 264 264 263 254 247 240 237 240 240 238 238 241 241 242 242 236 235 241 237 238 239 241 243 241 248 250 248 241 239 239 243 247 249 248
263 254 261 251 254 261 259 269 251 245 243 244 244 244 243 240 241 242 241 242 245 243 234 236 239 241 243 243 245 245 244 237 235 236 239 243 246 249
249 256 260 251 258 259 257 259 254 252 246 242 246 250 252 252 249 249 250 245 238 239 237 234 237 237 240 242 241 240 239 234 232 234 237 241 245 246
251 241 246 258 259 263 257 251 255 259 251 265 249 254 256 254 251 247 240 238 235 241 239 239 239 236 238 241 239 237 236 232 233 235 233 233 240 244
262 264 255 250 254 258 259 257 262 261 265 260 253 255 252 256 257 255 247 246 242 234 237 234 238 234 231 237 236 232 232 231 232 230 238 230 237 240
260 254 260 258 257 252 255 258 260 267 268 261 258 265 262 251 252 236 238 243 238 240 245 243 236 233 229 230 235 229 230 232 231 233 231 225 230 241
270 263 255 248 253 258 260 257 256 261 264 265 264 258 254 255 257 241 241 243 246 249 251 248 238 236 233 224 224 225 224 229 229 227 225 225 222 234
277 271 265 258 256 256 258 258 257 253 257 254 256 254 254 257 259 244 240 242 245 246 246 243 244 241 232 231 228 227 220 221 226 223 223 224 220 224
288 281 274 266 258 258 260 260 257 244 244 251 252 255 256 256 255 252 243 242 240 237 237 239 241 235 234 233 233 230 226 215 218 218 217 221 224 226
301 294 289 281 270 262 260 258 261 259 242 245 247 248 250 253 252 249 245 244 238 237 231 228 227 230 230 237 227 227 223 215 212 213 209 216 221 225
293 288 289 286 279 274 269 266 262 260 257 246 247 247 247 247 247 245 242 240 238 232 230 226 222 212 213 217 220 223 212 208 202 197 204 208 217 224
292 288 285 282 277 273 273 273 268 268 268 263 252 247 248 246 242 241 241 236 227 229 227 226 215 208 200 194 197 206 207 196 193 188 191 201 215 227
299 292 289 287 279 275 276 275 275 272 267 262 256 250 245 244 241 239 235 232 228 223 221 218 215 211 205 197 185 189 193 201 195 191 191 199 211 220
302 293 289 288 287 284 280 277 274 271 268 263 256 249 244 238 236 235 233 229 227 223 219 215 212 209 207 205 194 185 189 192 195 193 191 194 204 218
297 295 290 288 287 286 279 273 271 269 267 262 257 250 247 243 237 236 230 221 218 223 218 211 201 201 200 197 191 186 182 183 185 186 193 207 204 213
296 293 289 288 284 283 278 275 271 267 265 261 255 250 244 239 233 230 226 221 215 208 207 198 193 193 192 187 183 177 177 179 182 186 192 204 212 217